ANA373 RJGG-RJFU

Flight info

Callsign ANA373
Flight time 1h 13m
Altitude 30000
Route HIKNE Y207 ARASI Y20 KAMMY Y204 OHGIE
Aircraft B738/M-SDE2E3FGHIRWXY/LB1

Departure

Time 2026-05-09 08:41
Airport Chubu Centrair International Airport (RJGG)

Arrival

Time 2026-05-09 09:54
Airport Nagasaki Airport (RJFU)
Time Latitude Longitude Altitude Speed Heading
2026-05-09 08:28 34.85950 136.81213 28 ft 0 kts 161°
2026-05-09 08:31 34.85959 136.81209 28 ft 2 kts 161°
2026-05-09 08:31 34.85972 136.81204 28 ft 2 kts 161°
2026-05-09 08:32 34.85986 136.81198 28 ft 2 kts 161°
2026-05-09 08:32 34.85999 136.81193 28 ft 2 kts 161°
2026-05-09 08:32 34.86025 136.81183 28 ft 2 kts 164°
2026-05-09 08:33 34.86036 136.81179 28 ft 1 kts 166°
2026-05-09 08:33 34.86043 136.81177 28 ft 1 kts 167°
2026-05-09 08:33 34.86049 136.81176 28 ft 1 kts 167°
2026-05-09 08:33 34.86054 136.81174 28 ft 1 kts 168°
2026-05-09 08:34 34.86060 136.81173 28 ft 1 kts 168°
2026-05-09 08:34 34.86062 136.81172 28 ft 0 kts 168°
2026-05-09 08:34 34.86061 136.81172 28 ft 0 kts 168°
2026-05-09 08:35 34.86054 136.81174 28 ft 2 kts 168°
2026-05-09 08:35 34.86033 136.81169 28 ft 4 kts 211°
2026-05-09 08:35 34.86017 136.81134 28 ft 6 kts 252°
2026-05-09 08:36 34.86009 136.81082 28 ft 7 kts 259°
2026-05-09 08:36 34.85998 136.81015 27 ft 9 kts 259°
2026-05-09 08:36 34.85984 136.80927 27 ft 12 kts 259°
2026-05-09 08:36 34.85917 136.80877 27 ft 15 kts 169°
2026-05-09 08:37 34.85796 136.80905 27 ft 20 kts 169°
2026-05-09 08:37 34.85646 136.80941 27 ft 24 kts 169°
2026-05-09 08:37 34.85471 136.80983 27 ft 28 kts 169°
2026-05-09 08:37 34.85279 136.81029 27 ft 27 kts 168°
2026-05-09 08:38 34.85097 136.81073 27 ft 26 kts 169°
2026-05-09 08:38 34.84928 136.81114 27 ft 24 kts 169°
2026-05-09 08:38 34.84770 136.81152 27 ft 23 kts 169°
2026-05-09 08:38 34.84617 136.81188 27 ft 22 kts 169°
2026-05-09 08:39 34.84470 136.81212 27 ft 20 kts 197°
2026-05-09 08:39 34.84424 136.81068 28 ft 19 kts 259°
2026-05-09 08:39 34.84407 136.80963 25 ft 19 kts 259°
2026-05-09 08:39 34.84467 136.80864 24 ft 13 kts 349°
2026-05-09 08:40 34.84486 136.80860 25 ft 4 kts 349°
2026-05-09 08:40 34.84675 136.80816 27 ft 62 kts 348°
2026-05-09 08:40 34.85314 136.80661 23 ft 123 kts 349°
2026-05-09 08:40 34.86245 136.80430 384 ft 140 kts 345°
2026-05-09 08:41 34.87211 136.80134 984 ft 148 kts 342°
2026-05-09 08:41 34.88192 136.79764 1778 ft 144 kts 341°
2026-05-09 08:41 34.89189 136.79375 2243 ft 163 kts 341°
2026-05-09 08:41 34.90359 136.78912 2470 ft 189 kts 341°
2026-05-09 08:42 34.91683 136.78382 2651 ft 211 kts 341°
2026-05-09 08:42 34.93160 136.77786 2872 ft 234 kts 341°
2026-05-09 08:42 34.94713 136.77158 3587 ft 238 kts 341°
2026-05-09 08:42 34.96276 136.76427 4253 ft 244 kts 329°
2026-05-09 08:43 34.97476 136.74975 5048 ft 249 kts 303°
2026-05-09 08:43 34.98056 136.72966 5782 ft 257 kts 280°
2026-05-09 08:43 34.97982 136.70772 6595 ft 262 kts 266°
2026-05-09 08:43 34.97676 136.68569 7360 ft 264 kts 264°
2026-05-09 08:44 34.97346 136.66346 8128 ft 267 kts 264°
2026-05-09 08:44 34.97037 136.64115 8960 ft 267 kts 269°
2026-05-09 08:44 34.97264 136.61908 9816 ft 262 kts 292°
2026-05-09 08:44 34.98133 136.59950 10455 ft 270 kts 304°
2026-05-09 08:45 34.99279 136.58015 10647 ft 294 kts 307°
2026-05-09 08:45 35.00565 136.55944 10829 ft 317 kts 307°
2026-05-09 08:45 35.01945 136.53733 10992 ft 338 kts 307°
2026-05-09 08:45 35.03400 136.51384 11239 ft 354 kts 307°
2026-05-09 08:46 35.04896 136.48950 11762 ft 361 kts 306°
2026-05-09 08:46 35.06400 136.46490 12502 ft 361 kts 306°
2026-05-09 08:46 35.07896 136.44031 13241 ft 363 kts 306°
2026-05-09 08:46 35.09412 136.41533 13797 ft 370 kts 306°
2026-05-09 08:47 35.10945 136.39005 14543 ft 369 kts 306°
2026-05-09 08:47 35.12450 136.36519 15303 ft 369 kts 305°
2026-05-09 08:47 35.13969 136.34005 16114 ft 367 kts 305°
2026-05-09 08:47 35.15490 136.31488 16780 ft 370 kts 305°
2026-05-09 08:48 35.17040 136.28919 17435 ft 372 kts 304°
2026-05-09 08:48 35.18558 136.26404 18129 ft 373 kts 304°
2026-05-09 08:48 35.20098 136.23851 18752 ft 373 kts 304°
2026-05-09 08:48 35.21625 136.21278 19308 ft 374 kts 301°
2026-05-09 08:49 35.22683 136.18397 19832 ft 374 kts 286°
2026-05-09 08:49 35.23170 136.15274 20406 ft 375 kts 276°
2026-05-09 08:49 35.23056 136.12080 20984 ft 378 kts 264°
2026-05-09 08:49 35.22571 136.08913 21560 ft 379 kts 262°
2026-05-09 08:50 35.22059 136.05756 22078 ft 380 kts 262°
2026-05-09 08:50 35.21560 136.02581 22566 ft 380 kts 262°
2026-05-09 08:50 35.21083 135.99394 23049 ft 381 kts 263°
2026-05-09 08:50 35.20614 135.96198 23504 ft 382 kts 263°
2026-05-09 08:51 35.20147 135.92999 23885 ft 384 kts 262°
2026-05-09 08:51 35.19676 135.89780 24190 ft 386 kts 262°
2026-05-09 08:51 35.19198 135.86547 24495 ft 387 kts 262°
2026-05-09 08:51 35.18718 135.83310 24889 ft 387 kts 261°
2026-05-09 08:52 35.18239 135.80075 25254 ft 387 kts 261°
2026-05-09 08:52 35.17734 135.76852 25606 ft 387 kts 260°
2026-05-09 08:52 35.17192 135.73621 25922 ft 388 kts 259°
2026-05-09 08:52 35.16637 135.70393 26295 ft 387 kts 259°
2026-05-09 08:53 35.16084 135.67182 26738 ft 385 kts 259°
2026-05-09 08:53 35.15536 135.63995 27248 ft 381 kts 258°
2026-05-09 08:53 35.14999 135.60842 27792 ft 376 kts 258°
2026-05-09 08:53 35.14469 135.57741 28343 ft 372 kts 258°
2026-05-09 08:54 35.13945 135.54657 28843 ft 369 kts 257°
2026-05-09 08:54 35.13422 135.51588 29259 ft 368 kts 257°
2026-05-09 08:54 35.12899 135.48530 29601 ft 369 kts 257°
2026-05-09 08:54 35.12376 135.45458 29923 ft 369 kts 257°
2026-05-09 08:55 35.11852 135.42384 30092 ft 370 kts 257°
2026-05-09 08:55 35.10796 135.36220 30106 ft 370 kts 257°
2026-05-09 08:56 35.09742 135.30079 30103 ft 370 kts 257°
2026-05-09 08:56 35.08685 135.23933 30098 ft 370 kts 257°
2026-05-09 08:57 35.07636 135.17792 30104 ft 370 kts 257°
2026-05-09 08:57 35.06582 135.11644 30111 ft 370 kts 257°
2026-05-09 08:58 35.05526 135.05501 30092 ft 370 kts 257°
2026-05-09 08:58 35.04471 134.99365 30100 ft 370 kts 257°
2026-05-09 08:59 35.03411 134.93249 30097 ft 371 kts 257°
2026-05-09 08:59 35.02331 134.87100 30105 ft 371 kts 256°
2026-05-09 09:00 35.01237 134.80933 30097 ft 372 kts 256°
2026-05-09 09:00 35.00142 134.74760 30097 ft 372 kts 257°
2026-05-09 09:01 34.99024 134.68601 30108 ft 372 kts 255°
2026-05-09 09:01 34.97506 134.62583 30115 ft 371 kts 252°
2026-05-09 09:02 34.95926 134.56567 30116 ft 373 kts 252°
2026-05-09 09:02 34.94350 134.50542 30118 ft 372 kts 252°
2026-05-09 09:03 34.92782 134.44531 30112 ft 372 kts 252°
2026-05-09 09:03 34.91216 134.38524 30115 ft 372 kts 253°
2026-05-09 09:04 34.89645 134.32503 30113 ft 373 kts 252°
2026-05-09 09:04 34.88071 134.26488 30096 ft 373 kts 252°
2026-05-09 09:05 34.86490 134.20461 30088 ft 374 kts 252°
2026-05-09 09:05 34.84905 134.14430 30060 ft 374 kts 252°
2026-05-09 09:06 34.83315 134.08401 30081 ft 374 kts 252°
2026-05-09 09:06 34.81721 134.02367 30079 ft 375 kts 252°
2026-05-09 09:07 34.80122 133.96321 30076 ft 376 kts 252°
2026-05-09 09:07 34.78514 133.90259 30068 ft 376 kts 252°
2026-05-09 09:08 34.76903 133.84201 30076 ft 377 kts 252°
2026-05-09 09:08 34.75287 133.78137 30072 ft 378 kts 253°
2026-05-09 09:09 34.73663 133.72059 30076 ft 378 kts 252°
2026-05-09 09:09 34.72048 133.66023 30094 ft 377 kts 252°
2026-05-09 09:10 34.70412 133.59928 30093 ft 377 kts 252°
2026-05-09 09:10 34.68784 133.53871 30083 ft 378 kts 252°
2026-05-09 09:11 34.67148 133.47800 30094 ft 378 kts 252°
2026-05-09 09:11 34.65505 133.41718 30084 ft 379 kts 252°
2026-05-09 09:12 34.63860 133.35638 30094 ft 380 kts 252°
2026-05-09 09:12 34.62218 133.29586 30104 ft 380 kts 252°
2026-05-09 09:13 34.60549 133.23448 30097 ft 380 kts 252°
2026-05-09 09:13 34.58900 133.17399 30083 ft 381 kts 252°
2026-05-09 09:14 34.57240 133.11319 30081 ft 379 kts 252°
2026-05-09 09:14 34.55576 133.05239 30096 ft 381 kts 252°
2026-05-09 09:15 34.53900 132.99127 30099 ft 382 kts 252°
2026-05-09 09:15 34.52217 132.93002 30094 ft 383 kts 252°
2026-05-09 09:16 34.50528 132.86872 30111 ft 384 kts 252°
2026-05-09 09:16 34.47987 132.77667 30105 ft 383 kts 252°
2026-05-09 09:17 34.46290 132.71548 30095 ft 383 kts 253°
2026-05-09 09:17 34.44585 132.65423 30102 ft 383 kts 253°
2026-05-09 09:18 34.42881 132.59310 30091 ft 384 kts 252°
2026-05-09 09:18 34.41168 132.53179 30097 ft 384 kts 252°
2026-05-09 09:19 34.39451 132.47043 30102 ft 385 kts 252°
2026-05-09 09:19 34.37728 132.40902 30099 ft 385 kts 253°
2026-05-09 09:20 34.36003 132.34766 30098 ft 385 kts 252°
2026-05-09 09:20 34.34279 132.28647 30090 ft 384 kts 252°
2026-05-09 09:21 34.32570 132.22593 30104 ft 383 kts 253°
2026-05-09 09:21 34.30833 132.16458 30087 ft 383 kts 253°
2026-05-09 09:22 34.29116 132.10395 30079 ft 384 kts 252°
2026-05-09 09:22 34.27376 132.04274 30103 ft 386 kts 253°
2026-05-09 09:23 34.25625 131.98126 30096 ft 388 kts 252°
2026-05-09 09:23 34.23860 131.91936 30099 ft 390 kts 253°
2026-05-09 09:24 34.22088 131.85744 30096 ft 390 kts 252°
2026-05-09 09:24 34.20313 131.79552 30086 ft 389 kts 252°
2026-05-09 09:25 34.18544 131.73395 30106 ft 387 kts 253°
2026-05-09 09:25 34.16776 131.67251 30110 ft 387 kts 253°
2026-05-09 09:26 34.15294 131.62115 30110 ft 386 kts 253°
2026-05-09 09:26 34.13528 131.56005 30106 ft 386 kts 253°
2026-05-09 09:27 34.11770 131.49932 30101 ft 386 kts 252°
2026-05-09 09:27 34.09990 131.43799 30113 ft 384 kts 253°
2026-05-09 09:28 34.08231 131.37744 30097 ft 385 kts 253°
2026-05-09 09:28 34.06426 131.31662 30102 ft 386 kts 250°
2026-05-09 09:29 34.04043 131.25815 30105 ft 389 kts 246°
2026-05-09 09:29 34.01593 131.19991 30113 ft 390 kts 246°
2026-05-09 09:30 33.99148 131.14139 30106 ft 391 kts 246°
2026-05-09 09:30 33.96702 131.08276 30109 ft 392 kts 246°
2026-05-09 09:31 33.94246 131.02400 30098 ft 393 kts 246°
2026-05-09 09:32 33.90566 130.93579 30095 ft 393 kts 246°
2026-05-09 09:32 33.88107 130.87695 30109 ft 393 kts 246°
2026-05-09 09:33 33.85644 130.81811 30108 ft 394 kts 246°
2026-05-09 09:33 33.83184 130.75947 30107 ft 393 kts 246°
2026-05-09 09:34 33.80713 130.70059 29589 ft 399 kts 246°
2026-05-09 09:34 33.79471 130.67107 29048 ft 395 kts 246°
2026-05-09 09:34 33.78229 130.64156 28111 ft 395 kts 246°
2026-05-09 09:36 33.69819 130.44241 23518 ft 375 kts 247°
2026-05-09 09:36 33.68447 130.41560 22792 ft 380 kts 237°
2026-05-09 09:36 33.66657 130.39215 22107 ft 382 kts 229°
2026-05-09 09:37 33.64548 130.37115 20948 ft 399 kts 219°
2026-05-09 09:37 33.62123 130.35504 20246 ft 404 kts 212°
2026-05-09 09:37 33.59613 130.33989 19576 ft 403 kts 211°
2026-05-09 09:37 33.57111 130.32489 18942 ft 401 kts 211°
2026-05-09 09:38 33.54622 130.30987 18313 ft 400 kts 211°
2026-05-09 09:38 33.52148 130.29482 17625 ft 398 kts 211°
2026-05-09 09:38 33.49696 130.27982 17005 ft 395 kts 211°
2026-05-09 09:38 33.47259 130.26487 16386 ft 392 kts 211°
2026-05-09 09:39 33.44844 130.25004 15797 ft 389 kts 211°
2026-05-09 09:39 33.42449 130.23533 15207 ft 386 kts 210°
2026-05-09 09:39 33.40062 130.22067 14577 ft 385 kts 210°
2026-05-09 09:39 33.37681 130.20606 13969 ft 384 kts 210°
2026-05-09 09:40 33.35313 130.19156 13328 ft 382 kts 210°
2026-05-09 09:40 33.33019 130.17587 12676 ft 377 kts 220°
2026-05-09 09:40 33.31215 130.15370 12075 ft 369 kts 232°
2026-05-09 09:40 33.29584 130.13016 11500 ft 366 kts 233°
2026-05-09 09:41 33.27962 130.10682 11048 ft 361 kts 232°
2026-05-09 09:41 33.26374 130.08440 10881 ft 347 kts 232°
2026-05-09 09:41 33.24825 130.06278 10660 ft 337 kts 231°
2026-05-09 09:41 33.23325 130.04194 10504 ft 326 kts 231°
2026-05-09 09:42 33.21871 130.02177 10367 ft 315 kts 231°
2026-05-09 09:42 33.20464 130.00229 10238 ft 304 kts 231°
2026-05-09 09:42 33.19107 129.98350 10120 ft 295 kts 231°
2026-05-09 09:42 33.17788 129.96524 9968 ft 287 kts 231°
2026-05-09 09:43 33.16488 129.94726 9651 ft 285 kts 231°
2026-05-09 09:43 33.15198 129.92940 9347 ft 283 kts 231°
2026-05-09 09:43 33.13919 129.91171 9041 ft 281 kts 231°
2026-05-09 09:43 33.12644 129.89408 8743 ft 280 kts 231°
2026-05-09 09:44 33.11140 129.87949 8417 ft 283 kts 206°
2026-05-09 09:44 33.09230 129.87466 8126 ft 283 kts 178°
2026-05-09 09:44 33.07349 129.88090 7843 ft 283 kts 152°
2026-05-09 09:44 33.05786 129.89482 7574 ft 281 kts 139°
2026-05-09 09:45 33.04353 129.91018 7274 ft 280 kts 137°
2026-05-09 09:45 33.02904 129.92608 6974 ft 280 kts 137°
2026-05-09 09:45 33.01490 129.94154 6683 ft 279 kts 137°
2026-05-09 09:45 33.00052 129.95715 6393 ft 279 kts 138°
2026-05-09 09:46 32.98616 129.97265 6047 ft 279 kts 138°
2026-05-09 09:46 32.97172 129.98815 5718 ft 279 kts 138°
2026-05-09 09:46 32.95732 130.00357 5418 ft 277 kts 138°
2026-05-09 09:46 32.94303 130.01884 5134 ft 275 kts 138°
2026-05-09 09:47 32.92880 130.03402 4847 ft 273 kts 138°
2026-05-09 09:47 32.91469 130.04907 4539 ft 272 kts 138°
2026-05-09 09:47 32.90065 130.06401 4245 ft 270 kts 138°
2026-05-09 09:47 32.88671 130.07884 4011 ft 266 kts 138°
2026-05-09 09:48 32.87316 130.09325 3898 ft 257 kts 138°
2026-05-09 09:48 32.85939 130.10612 3777 ft 249 kts 154°
2026-05-09 09:48 32.84303 130.11028 3714 ft 235 kts 184°
2026-05-09 09:48 32.82793 130.10518 3611 ft 220 kts 208°
2026-05-09 09:49 32.81619 130.09453 3511 ft 207 kts 226°
2026-05-09 09:49 32.80666 130.08232 3380 ft 197 kts 229°
2026-05-09 09:49 32.79780 130.07010 3140 ft 193 kts 237°
2026-05-09 09:49 32.79498 130.05562 3043 ft 176 kts 285°
2026-05-09 09:50 32.80060 130.04352 2907 ft 163 kts 306°
2026-05-09 09:50 32.80751 130.03330 2722 ft 151 kts 312°
2026-05-09 09:50 32.81444 130.02398 2494 ft 149 kts 313°
2026-05-09 09:50 32.82164 130.01546 2304 ft 144 kts 317°
2026-05-09 09:51 32.82896 130.00749 2109 ft 143 kts 318°
2026-05-09 09:51 32.83620 129.99974 1922 ft 141 kts 319°
2026-05-09 09:51 32.84353 129.99190 1719 ft 142 kts 318°
2026-05-09 09:51 32.85075 129.98418 1548 ft 139 kts 318°
2026-05-09 09:52 32.85804 129.97638 1353 ft 143 kts 318°
2026-05-09 09:52 32.86548 129.96847 1178 ft 143 kts 318°
2026-05-09 09:52 32.87290 129.96054 984 ft 144 kts 316°
2026-05-09 09:52 32.88035 129.95256 798 ft 144 kts 316°
2026-05-09 09:53 32.88777 129.94465 610 ft 143 kts 315°
2026-05-09 09:53 32.89517 129.93676 408 ft 143 kts 316°
2026-05-09 09:53 32.90256 129.92892 197 ft 143 kts 315°
2026-05-09 09:53 32.90986 129.92109 29 ft 138 kts 316°
2026-05-09 09:54 32.91622 129.91424 19 ft 103 kts 319°
2026-05-09 09:54 32.92040 129.90978 18 ft 61 kts 318°
2026-05-09 09:54 32.92315 129.90686 20 ft 32 kts 323°
2026-05-09 09:54 32.92446 129.90762 16 ft 22 kts 66°
2026-05-09 09:55 32.92372 129.90899 16 ft 21 kts 138°
2026-05-09 09:55 32.92266 129.91011 14 ft 20 kts 138°
2026-05-09 09:55 32.92164 129.91121 14 ft 19 kts 138°
2026-05-09 09:55 32.92065 129.91227 13 ft 19 kts 138°
2026-05-09 09:56 32.91968 129.91329 14 ft 18 kts 138°
2026-05-09 09:56 32.91875 129.91428 13 ft 18 kts 138°
2026-05-09 09:56 32.91785 129.91522 15 ft 17 kts 139°
2026-05-09 09:56 32.91700 129.91615 15 ft 16 kts 137°
2026-05-09 09:57 32.91617 129.91705 14 ft 16 kts 137°
2026-05-09 09:57 32.91538 129.91791 15 ft 15 kts 137°
2026-05-09 09:57 32.91462 129.91873 15 ft 14 kts 138°
2026-05-09 09:57 32.91388 129.91951 15 ft 14 kts 139°
2026-05-09 09:58 32.91348 129.92032 14 ft 12 kts 63°
2026-05-09 09:58 32.91399 129.92104 14 ft 11 kts 48°
2026-05-09 09:58 32.91425 129.92138 15 ft 0 kts 48°